sat.trackr.live / text

‹ back to catalog

STARLINK-34647

NORAD 64904 · 2025-157A

PAYLOAD ACTIVE UNKNOWN

§ Identity

Operator
Country
US
Launch date
2025-07-26
Launch site
AFETR
Launch vehicle
Mass (kg)
RCS (m²)

Purposes: comms

External: N2YO · Heavens-Above · Gunter

§ Orbital elements

Epoch: 2026-05-24T20:52:52.912704Z

Period
94.07 min
Inclination
53.1617°
Eccentricity
0.0001229
Mean motion
15.30831489 rev/d
Perigee alt
472.5 km
Apogee alt
474.2 km
Semi-major
6,851.5 km
B*
1.5832e-2
RAAN
352.0858°
Arg perigee
94.9490°
Mean anomaly
265.1651°
Rev number
4,777

§ Raw data

STARLINK-346471 64904U 25157A   26144.87005686  .00512136  00000+0  15832-1 0  99972 64904  53.1617 352.0858 0001229  94.9490 265.1651 15.30831489 47771

JSON: /api/v1/satellites/64904 · /tle

For live sub-satellite position, see the globe view (requires WebGL).

§ Visibility from observer

Set your observer location to see the next 7 days of passes ≥ 10°. The values pass through the URL so the page stays shareable.

No JS? Fill the form by hand. The geolocation button needs JavaScript.